[[{"header":{"parameterUnit":"m.s-1","parameterCategory":1,"la1":30.2991,"la2":30.254,"lo1":-89.0895,"lo2":-89.0444,"dy":0.0017,"dx":0.0017,"nx":28,"ny":28,"refTime":"2024-07-25T09:00:00:Z","depth":0,"parameterNumber":2,"parameterNumberName":"U-component_of_WINDS"},"data":[0,0,0,0,0,0,0,0,0,0,0,0,0,0,0,0,0,0,0,0,0,0,0,0,0,0,0,0,0,0,0,0,0,0,0,0,0,0,0,0,0,0,0,0,0,0,0,0,0,0,0,0,0,0,0,0,0,0,0.7746,0.7747,0,0.7829,0.783,0.7831,0.787,0.787,0.787,0.787,0.7954,0.7956,0.7959,0,0,0,0,0,0,0,0,0,0,0,0,0,0.7619,0.7621,0.7746,0.7747,0.7748,0.7829,0.783,0.7831,0.787,0.787,0.787,0.787,0.7953,0.7956,0.7959,0,0,0,0,0,0,0,0,0,0,0,0,0,0.7685,0.7622,0.7746,0.7777,0.7781,0.7829,0.783,0.7832,0.787,0.787,0.787,0.787,0.7952,0.7956,0.7959,0.7982,0,0,0.797,0.7971,0,0,0,0,0,0,0,0,0.7682,0.769,0.7772,0.7775,0.7779,0.7839,0.7817,0.7882,0.787,0.7836,0.787,0.787,0.7916,0.7922,0.7938,0.7986,0.799,0.797,0.7972,0.7974,0.7975,0,0,0,0,0,0,0,0.7677,0.7687,0.7779,0.7773,0.7777,0.7787,0.7796,0.7829,0.7875,0.7839,0.7842,0.7851,0.7918,0.7935,0.794,0.7991,0.797,0.7973,0.7975,0.7977,0.8061,0.8061,0,0,0,0,0,0,0.7668,0.7683,0.7776,0.7782,0.7729,0.7789,0.7799,0.782,0.7875,0.7884,0.7851,0.7853,0.7929,0.7936,0.7943,0.7974,0.7974,0.7977,0.7979,0.8061,0.8061,0.8061,0,0,0,0,0,0,0.7665,0.7676,0.7773,0.7733,0.7746,0.7791,0.7814,0.7822,0.7839,0.7885,0.7893,0.786,0.7929,0.7939,0.7972,0.7977,0.7978,0.7982,0.8061,0.8061,0.8061,0.8034,0,0,0,0,0,0,0.7661,0.7674,0.7684,0.7733,0.7748,0.7801,0.7814,0.7823,0.7844,0.7847,0.7895,0.7903,0.793,0.7967,0.7976,0.7982,0.7984,0.806,0.8061,0.8061,0.8035,0.8034,0.8032,0,0,0,0,0,0.7656,0.7673,0.7684,0.7695,0.7761,0.7801,0.781,0.7841,0.7845,0.7854,0.7884,0.7901,0.7975,0.797,0.798,0.7988,0.806,0.8061,0.8061,0.8035,0.8034,0.8032,0,0,0,0,0,0,0.7624,0.768,0.7693,0.7726,0.7759,0.7807,0.7821,0.7838,0.7869,0.7871,0.7908,0.7918,0.7948,0.7971,0.7964,0.8012,0.8019,0.8022,0.7996,0.7995,0.7994,0.7988,0.7987,0,0,0,0,0,0.762,0.7648,0.7696,0.7721,0.7736,0.7775,0.7794,0.7815,0.785,0.7863,0.7895,0.7928,0.7959,0.7978,0.8009,0.8038,0.8049,0.8048,0.8047,0.8046,0.8047,0.8064,0.8064,0.8063,0.8063,0.8063,0,0,0.7614,0.7648,0.7663,0.7715,0.7742,0.777,0.7787,0.7815,0.7836,0.7868,0.7901,0.7926,0.7965,0.7996,0.8011,0.8016,0.805,0.8046,0.8045,0.8047,0.8065,0.8065,0.8065,0.8063,0.8063,0.8063,0,0,0.7616,0.7645,0.7668,0.7695,0.7736,0.7762,0.7768,0.7814,0.7831,0.7865,0.789,0.7914,0.7966,0.7993,0.8013,0.8024,0.8041,0.8033,0.8026,0.8042,0.8042,0.8043,0.8046,0.8047,0.8034,0.8034,0.8034,0,0.7602,0.7646,0.7678,0.7705,0.7727,0.7756,0.778,0.7805,0.7853,0.7867,0.7872,0.7937,0.7966,0.8003,0.8006,0.8021,0.8028,0.8028,0.804,0.804,0.8041,0.8045,0.8046,0.8033,0.8033,0.8033,0.8033,0,0.7627,0.7656,0.767,0.7716,0.774,0.7765,0.78,0.782,0.7838,0.7863,0.7897,0.7932,0.797,0.7981,0.7999,0.8021,0.8022,0.8033,0.8041,0.804,0.8044,0.8046,0.8031,0.8032,0.8032,0.8032,0,0,0.7612,0.7675,0.768,0.7701,0.7748,0.7771,0.7797,0.7834,0.785,0.7882,0.7905,0.7947,0.7957,0.798,0.8001,0.8015,0.8021,0.8024,0.8026,0.8022,0.8047,0.8039,0.804,0.8032,0.8033,0.8033,0.8043,0,0.7621,0.7669,0.7699,0.7735,0.7762,0.779,0.7813,0.7843,0.7867,0.7893,0.792,0.7949,0.796,0.7974,0.7989,0.8017,0.8026,0.8017,0.8054,0.8054,0.8043,0.8042,0.8034,0.8042,0.8045,0.8046,0.8046,0,0.7638,0.7669,0.7708,0.7751,0.7764,0.7784,0.782,0.7844,0.7879,0.7896,0.7921,0.7942,0.797,0.7975,0.8014,0.8007,0.8023,0.8039,0.804,0.8045,0.805,0.8047,0.8046,0.8047,0.8049,0.8049,0.8048,0,0.7622,0.7675,0.7705,0.7722,0.7773,0.7786,0.7808,0.7843,0.7863,0.7894,0.7908,0.7941,0.796,0.7986,0.8015,0.8016,0.8051,0.8059,0.8065,0.8065,0.8072,0.8071,0.8073,0.8082,0.8082,0.8082,0.8082,0,0.7629,0.7652,0.7698,0.7717,0.7743,0.7776,0.7801,0.7825,0.7855,0.7879,0.7905,0.7926,0.7964,0.7989,0.8013,0.8041,0.8049,0.8063,0.8069,0.8061,0.8059,0.8073,0.8073,0.8082,0.8082,0.8082,0.8082,0,0.7617,0.7649,0.7684,0.7729,0.7741,0.7758,0.7796,0.7815,0.784,0.7869,0.7877,0.7916,0.7948,0.798,0.8022,0.8038,0.8066,0.8074,0.8054,0.8057,0.8062,0.8061,0.8073,0.8076,0.8083,0.8082,0.8082,0,0.762,0.7638,0.7685,0.7702,0.7723,0.7751,0.7772,0.7804,0.7824,0.7865,0.7879,0.7912,0.7941,0.799,0.8021,0.8054,0.8063,0.8065,0.8068,0.8059,0.8063,0.8062,0.8064,0.8064,0.8064,0.8063,0.8063,0,0.762,0.7635,0.7664,0.7698,0.7721,0.775,0.7779,0.7792,0.783,0.7851,0.7884,0.7906,0.7949,0.7981,0.8018,0.804,0.8058,0.8062,0.8065,0.8057,0.8045,0.8052,0.8051,0.8062,0.8062,0.8062,0.8062,0.8062,0.7616,0.7633,0.7668,0.7699,0.7725,0.7751,0.7771,0.7797,0.7825,0.7863,0.788,0.7913,0.7947,0.7997,0.8019,0.8044,0.8049,0.8054,0.8055,0.8056,0.8054,0.804,0.8051,0.8051,0.8051,0.8051,0.8051,0,0.7618,0.7642,0.767,0.771,0.7734,0.7748,0.7781,0.78,0.7828,0.7858,0.7886,0.7923,0.7954,0.7988,0.8021,0.8035,0.8044,0.8043,0.8043,0.8047,0.8048,0.8041,0.8035,0.8035,0.8035,0.8035,0.8035,0.8035,0.7622,0.7651,0.767,0.7712,0.7736,0.7768,0.7785,0.7809,0.7834,0.7874,0.79,0.7922,0.7953,0.7989,0.8019,0.8028,0.8039,0.8035,0.8046,0.8046,0.8047,0.8049,0.8043,0.8037,0.8037,0.8044,0.8044,0.8044]},{"header":{"parameterUnit":"m.s-1","parameterCategory":1,"la1":30.2991,"la2":30.254,"lo1":-89.0895,"lo2":-89.0444,"dy":0.0017,"dx":0.0017,"nx":28,"ny":28,"refTime":"2024-07-25T09:00:00:Z","depth":0,"parameterNumber":3,"parameterNumberName":"V-component_of_WINDS"},"data":[0,0,0,0,0,0,0,0,0,0,0,0,0,0,0,0,0,0,0,0,0,0,0,0,0,0,0,0,0,0,0,0,0,0,0,0,0,0,0,0,0,0,0,0,0,0,0,0,0,0,0,0,0,0,0,0,0,0,1.707,1.7069,0,1.7058,1.7058,1.7058,1.7002,1.7001,1.7,1.6999,1.6987,1.6987,1.6988,0,0,0,0,0,0,0,0,0,0,0,0,0,1.7043,1.7044,1.707,1.7069,1.7069,1.7058,1.7058,1.7058,1.7003,1.7001,1.7,1.6998,1.6986,1.6987,1.6988,0,0,0,0,0,0,0,0,0,0,0,0,0,1.7045,1.7044,1.707,1.704,1.7038,1.7058,1.7058,1.7057,1.7003,1.7001,1.6999,1.6997,1.6986,1.6987,1.6989,1.7036,0,0,1.6993,1.6993,0,0,0,0,0,0,0,0,1.7045,1.7046,1.7045,1.7043,1.704,1.703,1.7044,1.705,1.7004,1.7016,1.6999,1.6996,1.7002,1.7002,1.7004,1.7035,1.7035,1.6993,1.6994,1.6994,1.6994,0,0,0,0,0,0,0,1.7045,1.7046,1.7065,1.7045,1.7042,1.7028,1.7026,1.7045,1.702,1.7015,1.7011,1.701,1.7001,1.7003,1.7004,1.7034,1.6993,1.6994,1.6995,1.6995,1.7101,1.7103,0,0,0,0,0,0,1.7049,1.7047,1.7065,1.7064,1.7038,1.703,1.7028,1.7035,1.702,1.7016,1.7012,1.7008,1.7002,1.7002,1.7003,1.7056,1.6994,1.6995,1.6996,1.7099,1.7102,1.7104,0,0,0,0,0,0,1.7049,1.7051,1.7066,1.7054,1.7055,1.7032,1.7041,1.7036,1.7038,1.7018,1.7013,1.7019,1.7,1.7001,1.7028,1.7055,1.6996,1.6997,1.7097,1.71,1.7103,1.7163,0,0,0,0,0,0,1.7048,1.7052,1.707,1.7055,1.7056,1.7091,1.7042,1.7037,1.7041,1.7035,1.7023,1.702,1.6999,1.7026,1.7029,1.7056,1.6998,1.7094,1.7098,1.7102,1.7159,1.7168,1.7176,0,0,0,0,0,1.7048,1.7088,1.7071,1.7073,1.7078,1.7093,1.7093,1.7069,1.7043,1.7061,1.7047,1.702,1.7051,1.7029,1.7032,1.706,1.7092,1.7097,1.7101,1.7155,1.7166,1.7176,0,0,0,0,0,0,1.7106,1.7085,1.7067,1.7103,1.71,1.7083,1.7105,1.7082,1.7086,1.708,1.705,1.7048,1.7078,1.7071,1.7047,1.7103,1.7067,1.7072,1.7107,1.7117,1.7126,1.7126,1.6999,0,0,0,0,0,1.7124,1.7137,1.7118,1.7152,1.7152,1.7129,1.7134,1.7115,1.7111,1.7109,1.7098,1.7095,1.7103,1.711,1.7117,1.7157,1.7153,1.7178,1.7186,1.7193,1.7198,1.7217,1.7227,1.7119,1.7119,1.7119,0,0,1.7159,1.7149,1.716,1.7164,1.7159,1.7173,1.7128,1.7146,1.7155,1.7112,1.7136,1.7127,1.7121,1.7154,1.7168,1.715,1.7227,1.7199,1.7205,1.7206,1.7223,1.7233,1.7243,1.7122,1.7121,1.7121,0,0,1.7232,1.7226,1.7253,1.7249,1.7242,1.7227,1.7233,1.722,1.7212,1.7235,1.7203,1.7214,1.723,1.7227,1.7227,1.7296,1.7271,1.73,1.7344,1.7363,1.7372,1.7379,1.7403,1.7412,1.7305,1.7305,1.7305,0,1.7277,1.7297,1.727,1.7289,1.7291,1.7252,1.7278,1.7276,1.7272,1.7274,1.7253,1.7271,1.7265,1.7296,1.7312,1.7315,1.732,1.7301,1.7373,1.738,1.7387,1.7409,1.7418,1.7308,1.7308,1.7307,1.7307,0,1.7353,1.7367,1.739,1.7386,1.7391,1.7414,1.7389,1.7397,1.7377,1.7364,1.7387,1.7377,1.7381,1.7387,1.7369,1.7415,1.7404,1.7379,1.7341,1.7401,1.7421,1.743,1.7313,1.7312,1.7311,1.731,0,0,1.7463,1.7443,1.7451,1.7448,1.7437,1.7448,1.7468,1.7472,1.7478,1.7477,1.7492,1.7506,1.7482,1.7483,1.7463,1.748,1.7534,1.7452,1.7452,1.7467,1.7583,1.7602,1.7612,1.7517,1.7518,1.752,1.7583,0,1.7531,1.7565,1.754,1.7578,1.759,1.7552,1.7569,1.7564,1.7552,1.756,1.7546,1.7556,1.7524,1.7524,1.7539,1.7524,1.7557,1.7519,1.7531,1.7531,1.7533,1.7623,1.7643,1.7703,1.7591,1.7592,1.7593,0,1.7615,1.7616,1.7656,1.764,1.7644,1.7661,1.7661,1.7669,1.7662,1.7651,1.7651,1.7627,1.7645,1.7609,1.7633,1.7608,1.7611,1.7604,1.7606,1.7606,1.7566,1.7624,1.7722,1.7731,1.7606,1.7605,1.7604,0,1.769,1.7702,1.7726,1.7725,1.7708,1.772,1.7714,1.7704,1.7707,1.7707,1.7709,1.7711,1.7712,1.7715,1.7691,1.7667,1.7718,1.768,1.7709,1.7709,1.7721,1.772,1.782,1.7724,1.7724,1.7724,1.7724,0,1.7769,1.7794,1.7759,1.7774,1.7801,1.7771,1.7798,1.7788,1.778,1.7791,1.7759,1.777,1.7739,1.7747,1.7728,1.775,1.7751,1.7743,1.7738,1.7745,1.7746,1.7747,1.7742,1.7726,1.7726,1.7725,1.7725,0,1.7857,1.7835,1.7859,1.784,1.7836,1.7856,1.784,1.7853,1.7837,1.7853,1.7854,1.783,1.7838,1.7815,1.7819,1.7806,1.7838,1.7826,1.7841,1.7837,1.7867,1.7864,1.797,1.7981,1.7879,1.788,1.7881,0,1.7909,1.7927,1.791,1.7915,1.791,1.7919,1.7922,1.7893,1.7897,1.7889,1.7903,1.7907,1.791,1.7924,1.7906,1.7909,1.7897,1.7933,1.7897,1.7904,1.7896,1.7895,1.7896,1.7941,1.7942,1.7943,1.7944,0,1.8002,1.7989,1.7994,1.7995,1.7999,1.7998,1.7995,1.8001,1.797,1.7976,1.7983,1.7985,1.7989,1.7994,1.7992,1.7985,1.7959,1.7956,1.7962,1.797,1.7977,1.7973,1.786,1.7953,1.7952,1.7952,1.7951,1.7951,1.8073,1.8086,1.8076,1.8082,1.8076,1.8074,1.8084,1.807,1.8075,1.8076,1.8058,1.8069,1.8059,1.8055,1.805,1.8057,1.804,1.805,1.8052,1.8055,1.806,1.7977,1.8057,1.8057,1.8056,1.8056,1.8056,0,1.8163,1.8154,1.816,1.8156,1.8161,1.8136,1.813,1.8136,1.8145,1.8139,1.8141,1.8149,1.8153,1.8135,1.8137,1.8146,1.8134,1.8147,1.8146,1.8145,1.8076,1.8069,1.8157,1.8157,1.8157,1.8157,1.8157,1.8157,1.8211,1.8232,1.8218,1.8236,1.8227,1.8236,1.8236,1.8233,1.8227,1.8237,1.824,1.8228,1.8217,1.8217,1.8219,1.8214,1.8216,1.8233,1.8224,1.8159,1.815,1.814,1.8134,1.8234,1.8234,1.8292,1.8292,1.8293]}]]